User: anonymous   Login
Location: Unspecified
(0.0000°N, 0.0000°E)
Time: 19:01:28
(UTC+00:00)
Language:

STARLINK-31330 - Orbit

View from above orbital plane
View from above orbital plane
View from above satellite
View from above satellite

Ground track
Ground track

The orbit is defined by the following mean orbital elements,

1 58951U          26145.46582913 +.00000000 +00000-0 -32365-5 0 00002
2 58951  53.1630 309.4365 0001206  98.6536 261.4603 15.34394122    00
Epoch (UTC): 25 May 2026 11:10:47
Eccentricity: 0.0001206
inclination: 53.1630°
perigee height: 462 km
apogee height: 464 km
right ascension of ascending node: 309.4365°
argument of perigee: 98.6536°
revolutions per day: 15.34394122
mean anomaly at epoch: 261.4603°

The dashed part of the orbit path shows where the satellite is in the earth's shadow,  

DLR